Regional Weather Roundup
Issued by NWS

Home | Current Version | Previous Version | Text Only | Print | Product List | Glossary On
Versions: 1 2 3 4 5 6 7 8 9 10 11 12 13 14 15 16 17 18 19 20 21 22 23 24 25 26 27 28 29 30 31 32 33 34 35 36 37 38 39 40 41 42 43 44 45 46 47 48 49 50
000
ASUS45 KPSR 301510
RWRAZ

ARIZONA REGIONAL HOURLY WEATHER ROUNDUP
NATIONAL WEATHER SERVICE PHOENIX AZ
800 AM MST THU OCT 30 2014

NOTE: FAIR INDICATES FEW OR NO CLOUDS BELOW 12,000 FEET WITH NO
SIGNIFICANT WEATHER AND/OR OBSTRUCTIONS TO VISIBILITY.

AZZ001>003-036-301600-
NORTHWEST ARIZONA

CITY           SKY/WX    TMP DP  RH WIND       PRES   REMARKS
BULLHEAD CITY  SUNNY     63  27  25 CALM      30.03R
KINGMAN        SUNNY     57  29  34 CALM      30.15R
$$

AZZ004>008-015-016-018-301600-
NORTH CENTRAL ARIZONA

CITY           SKY/WX    TMP DP  RH WIND       PRES   REMARKS
GRAND CANYON   MOSUNNY   35  20  54 CALM      30.35R
PRESCOTT       SUNNY     48  32  53 CALM      30.26R
FLAGSTAFF      MOSUNNY   37  25  61 CALM      30.38R
PAYSON         SUNNY     59  28  31 CALM      30.28R
PAGE           MOSUNNY   52  20  28 CALM      30.29R
$$

AZZ009>014-017-301600-
NORTHEAST ARIZONA

CITY           SKY/WX    TMP DP  RH WIND       PRES   REMARKS
WINSLOW        MOSUNNY   42  29  59 CALM      30.34R
SAINT JOHNS    SUNNY     41  26  55 CALM      30.33R
WINDOW ROCK    MOSUNNY   35  14  42 CALM      30.40R
SHOW LOW       SUNNY     46  25  42 CALM      30.37R
$$

AZZ023-301600-
GREATER PHOENIX AREA

CITY           SKY/WX    TMP DP  RH WIND       PRES   REMARKS
PHOENIX        MOSUNNY   71  41  33 E6        30.02R
BUCKEYE          N/A     61  37  41 CALM      30.02R
GLENDALE       SUNNY     64  45  48 CALM      30.04R
LUKE AFB       MOSUNNY   64  44  48 CALM      30.02R
DEER VALLEY    SUNNY     68  39  34 CALM      30.03R
SCOTTSDALE     SUNNY     65  46  50 CALM      30.05R
MESA-FALCON    SUNNY     68  36  30 N8        30.04
MESA-GATEWAY   SUNNY     63  41  45 E5        30.05R
CHANDLER       MOSUNNY   63  45  51 NE5       30.04R
$$

AZZ027-028-301600-
SOUTHWEST MARICOPA COUNTY AND PINAL COUNTY

CITY           SKY/WX    TMP DP  RH WIND       PRES   REMARKS
CASA GRANDE    SUNNY     63  43  48 CALM      30.05R
GILA BEND      MOSUNNY   66  41  39 E3        30.01R
$$

AZZ503-504-507>509-301600-
SOUTHEAST ARIZONA

CITY           SKY/WX    TMP DP  RH WIND       PRES   REMARKS
TUCSON         SUNNY     62  40  44 SE8       30.12R
DAVIS-MONTHAN  SUNNY     65  40  39 S6        30.10R
NOGALES        SUNNY     55  41  59 SE3       30.16R
SIERRA VISTA   MOSUNNY   64  39  39 CALM      30.22R
DOUGLAS        SUNNY     56  41  57 NW3       30.21R
SAFFORD        SUNNY     62  36  37 SE9       30.18R
$$

AZZ020-021-025-026-031-301600-
SOUTHWEST ARIZONA

CITY           SKY/WX    TMP DP  RH WIND       PRES   REMARKS
YUMA           PTSUNNY   71  35  26 NE9       29.95R
$$

CAZ031-033-041-043-047-048-061-301600-
SOUTHERN CALIFORNIA

CITY           SKY/WX    TMP DP  RH WIND       PRES   REMARKS
DOWNTOWN L.A.  SUNNY     61  53  75 CALM      29.98R
L.A. AIRPORT   MOSUNNY   61  55  80 E5        29.98R
SAN DIEGO      PTSUNNY   63  55  75 SE5       30.00R
BURBANK        SUNNY     60  40  47 W3        29.99R
ONTARIO        PTSUNNY   62  44  51 CALM      30.00R
RIVERSIDE      PTSUNNY   60  46  59 NE3       30.01R
PALM SPRINGS     N/A     67  31  26 MISG      30.00R
EL CENTRO NAS  PTSUNNY   61  29  29 CALM      29.96R
IMPERIAL       PTSUNNY   62  34  35 W5        29.95R
BLYTHE         SUNNY     62  28  27 S3        29.99R
NEEDLES        SUNNY     65  22  19 CALM      30.03R
$$

NVZ020-UTZ003-301600-
SOUTHERN NEVADA-UTAH

CITY           SKY/WX    TMP DP  RH WIND       PRES   REMARKS
LAS VEGAS      MOSUNNY   61  22  22 S9        30.07R
SALT LAKE CITY MOSUNNY   45  30  55 SE8       30.27S
$$

NMZ009-TXZ055-301600-
NEW MEXICO-WEST TEXAS

CITY           SKY/WX    TMP DP  RH WIND       PRES   REMARKS
ALBUQUERQUE    SUNNY     50  14  23 N8        30.35R
EL PASO        SUNNY     57  36  45 N10       30.23R
$$


........................KEY........................
SKY/WX - SKY CONDITION/WEATHER
TMP    - TEMPERATURE IN FAHRENHEIT
DP     - DEW POINT IN FAHRENHEIT
RH     - RELATIVE HUMIDITY IN PERCENT
WIND   - DIRECTION AND SPEED IN MILES PER HOUR (MPH)
VRB    - VARIABLE WIND DIRECTION
PRES   - MEAN SEA LEVEL PRESSURE IN INCHES OF MERCURY
         F - FALLING PRESSURE   R - RISING PRESSURE
         S - STEADY PRESSURE
VSB    - VISIBILITY IN MILES
HX     - HEAT INDEX IN FAHRENHEIT
WCI    - WIND CHILL INDEX IN FAHRENHEIT
TC     - TEMPERATURE IN CELSIUS WHICH IS ALSO KNOWN AS
         TEMPERATURE IN CENTIGRADE
AFB    - AIR FORCE BASE
         LUKE AFB IS LUKE AIR FORCE BASE
         DAVIS-MONTHAN IS DAVIS-MONTHAN AIR FORCE BASE
NAS    - NAVAL AIR STATION
         EL CENTRO NAS IS EL CENTRO NAVAL AIR STATION
N/A    - NOT AVAILABLE



USA.gov is the U.S. government's official web portal to all federal, state and local government web resources and services.